1504735200.05,27836,13.69,73544.5,3.07,2.39,2.35,0,*7D
1504735201.25,27837,13.69,73552.8,3.07,2.35,2.35,0,*70
1504735202.43,27838,13.69,73554.5,3.05,2.35,2.31,0,*79
1504735203.64,27839,13.69,73546.0,3.07,0.41,0.09,0,*42
1504735204.85,27840,13.69,73544.3,3.05,1.41,1.37,0,*73
1504735206.08,27841,13.69,73548.0,3.05,2.09,2.09,0,*73
1504735207.28,27842,13.69,73552.5,3.01,2.27,2.25,0,*76
1504735208.52,27843,13.69,73554.0,3.01,2.17,2.17,0,*75
1504735209.69,27844,13.69,73544.3,3.01,2.27,2.27,0,*72
1504735210.87,27845,13.69,73548.0,3.01,2.27,2.31,0,*74
1504735212.04,27846,13.69,73550.8,3.01,2.27,2.27,0,*70
1504735213.22,27847,13.69,73550.3,3.01,2.27,2.27,0,*71
1504735214.39,27848,13.69,73546.5,3.01,2.27,2.31,0,*79
1504735215.57,27849,13.69,73556.8,3.01,2.31,2.31,0,*7F
1504735216.74,27850,13.69,73552.3,3.01,2.31,2.31,0,*77
1504735217.94,27851,13.69,73546.0,3.01,2.39,2.31,0,*7E
1504735219.16,27852,13.69,73536.5,3.05,2.21,2.25,0,*75
1504735220.34,27853,13.69,73542.0,3.05,2.31,2.31,0,*70
1504735221.51,27854,13.69,73542.0,3.01,2.31,2.31,0,*73
1504735222.69,27855,13.69,73536.0,3.01,2.31,2.31,0,*72
1504735223.92,27856,13.69,73538.8,3.05,2.39,2.47,0,*7C
1504735225.15,27857,13.69,73538.8,3.05,2.39,2.47,0,*7D
1504735226.38,27858,13.69,73534.8,3.05,2.39,2.39,0,*7B
1504735227.62,27859,13.69,73542.3,3.05,2.39,2.39,0,*7A
1504735228.87,27860,13.69,73538.5,3.07,2.39,2.39,0,*72
1504735230.11,27861,13.69,73536.5,3.05,2.47,2.39,0,*78
1504735231.34,27862,13.69,73544.8,3.05,2.47,2.51,0,*75
1504735232.58,27863,13.69,73546.5,3.05,2.51,2.51,0,*73
1504735233.82,27864,13.69,73536.5,3.05,2.47,2.51,0,*73
1504735235.05,27865,13.69,73538.5,3.05,2.47,2.47,0,*75
1504735236.28,27866,13.69,73536.3,3.05,2.51,2.47,0,*71
1504735237.54,27867,13.69,73536.8,3.07,2.47,2.47,0,*75
1504735238.77,27868,13.69,73542.5,3.05,2.47,2.47,0,*78
1504735240.03,27869,13.69,73544.3,3.07,2.51,2.51,0,*7B
1504735241.29,27870,13.69,73542.3,3.07,2.47,2.51,0,*74
1504735242.52,27871,13.69,73540.8,3.09,2.43,2.51,0,*7F
1504735243.72,27872,13.69,73542.3,3.07,2.35,2.35,0,*71
1504735244.98,27873,13.69,73544.0,3.07,2.09,2.09,0,*70
1504735246.23,27874,13.69,73544.3,3.07,2.09,2.13,0,*7C
1504735247.45,27875,13.69,73542.0,3.05,2.21,2.21,0,*74
1504735248.71,27876,13.69,73546.0,3.07,2.25,2.25,0,*75
1504735249.94,27877,13.69,73548.5,3.05,2.25,2.25,0,*76
1504735251.16,27878,13.69,73540.0,3.05,2.21,2.25,0,*7D
1504735252.39,27879,13.69,73544.3,3.05,2.25,2.25,0,*78
1504735253.62,27880,13.69,73538.3,3.05,2.25,2.25,0,*7E
1504735254.83,27881,13.69,73546.0,3.05,2.31,2.25,0,*7A
1504735256.0,27882,13.69,73544.8,3.05,2.31,2.31,0,*7C
1504735257.23,27883,13.69,73548.8,3.05,2.25,2.25,0,*7D
1504735258.46,27884,13.69,73546.3,3.05,2.01,2.01,0,*7A
1504735259.7,27885,13.69,73546.8,3.05,2.09,2.13,0,*70
1504735260.92,27886,13.69,73538.3,3.05,2.21,2.21,0,*78
1504735262.14,27887,13.69,73542.8,3.05,2.25,2.21,0,*7D
1504735263.37,27888,13.69,73546.0,3.05,2.25,2.25,0,*76
1504735264.64,27889,13.69,73548.0,2.97,2.17,2.17,0,*7D
1504735265.87,27890,13.69,73552.0,3.01,2.17,2.17,0,*7B
1504735267.11,27891,13.69,73522.5,3.01,2.13,2.13,0,*7A
1504735268.33,27892,13.69,73530.8,3.01,2.25,2.25,0,*79
1504735269.51,27893,13.69,73538.5,3.01,2.31,2.27,0,*7F
1504735270.68,27894,13.69,73538.0,3.01,2.27,2.31,0,*78
1504735271.88,27895,13.69,73540.8,3.01,2.39,2.31,0,*76
1504735273.05,27896,13.69,73546.0,3.01,2.31,2.27,0,*7A
1504735274.28,27897,13.69,73540.8,3.01,2.13,2.13,0,*7C
1504735275.51,27898,13.69,73544.8,3.01,2.25,2.25,0,*73
1504735276.69,27899,13.69,73546.0,3.01,2.31,2.27,0,*75
1504735277.86,27900,13.69,73546.3,3.01,2.31,2.31,0,*73
1504735279.06,27901,13.69,73540.8,3.01,2.31,2.39,0,*7A
1504735280.3,27902,13.69,73544.5,3.05,2.47,2.47,0,*75
1504735281.55,27903,13.69,73544.3,3.07,2.47,2.47,0,*76
1504735282.74,27904,13.69,73542.5,3.05,-2.31,-2.91,0,*79
1504735283.99,27905,13.69,73544.8,2.91,-11.33,-11.73,0,*7A
1504735285.21,27906,13.69,73542.0,2.83,-7.73,-8.29,0,*7E
1504735286.42,27907,13.69,73546.0,2.75,-3.67,-4.17,0,*76
1504735287.65,27908,13.69,73540.8,2.73,-1.21,-1.55,0,*7C
1504735288.87,27909,13.69,73542.8,2.73,0.17,-0.03,0,*66
1504735290.12,27910,13.69,73542.0,2.73,0.71,0.59,0,*7C
1504735291.36,27911,13.69,73546.0,2.73,1.17,1.05,0,*74
1504735292.58,27912,13.69,73540.3,2.71,0.71,0.47,0,*73
1504735293.79,27913,13.69,73542.3,2.71,0.41,0.33,0,*72
1504735295.04,27914,13.69,73544.3,2.73,0.95,0.83,0,*75
1504735296.25,27915,13.69,73548.8,2.71,1.13,1.05,0,*76
1504735297.51,27916,13.69,73554.3,2.73,1.63,1.55,0,*75
1504735298.74,27917,13.69,73550.5,2.73,1.75,1.67,0,*72
1504735299.94,27918,13.69,73540.8,2.75,1.83,1.89,0,*72
1504735301.14,27919,13.69,73546.8,2.75,1.83,1.71,0,*74
1504735302.35,27920,13.69,73544.0,2.73,1.79,1.75,0,*79
1504735303.56,27921,13.69,73548.3,2.75,1.67,1.79,0,*7D
1504735304.76,27922,13.69,73550.0,2.75,1.79,1.71,0,*79
1504735305.97,27923,13.69,73536.0,2.75,1.71,1.79,0,*78
1504735307.17,27924,13.69,73538.8,2.79,1.47,1.41,0,*7D
1504735308.39,27925,13.69,73540.3,2.79,1.47,1.47,0,*7A
1504735309.62,27926,13.69,73538.8,2.75,1.67,1.67,0,*75
1504735310.82,27927,13.69,73536.3,2.75,1.79,1.71,0,*7C
1504735312.05,27928,13.69,73538.5,2.79,1.63,1.63,0,*77
1504735313.26,27929,13.69,73536.8,2.79,1.75,1.67,0,*75
1504735314.44,27930,13.69,73544.3,2.75,1.83,1.83,0,*72
1504735315.67,27931,13.69,73538.8,2.79,1.93,1.93,0,*7F
1504735316.9,27932,13.69,73538.5,2.79,1.93,1.85,0,*7B
1504735318.11,27933,13.69,73538.3,2.75,1.93,1.83,0,*70
1504735319.35,27934,13.69,73520.3,2.79,1.85,1.85,0,*7A
1504735320.53,27935,13.69,73530.8,2.79,1.83,1.83,0,*7B
1504735321.75,27936,13.69,73528.0,2.79,1.93,1.93,0,*78
1504735322.98,27937,13.69,73534.0,2.79,2.05,2.05,0,*79
1504735324.22,27938,13.69,73532.8,2.79,1.97,1.97,0,*76
1504735325.45,27939,13.69,73530.8,2.79,1.97,1.97,0,*77
1504735326.69,27940,13.69,73522.8,2.79,-8.03,-9.53,0,*7D
1504735327.9,27941,13.69,73526.8,2.67,-6.59,-7.15,0,*7E
1504735329.15,27942,13.69,73524.0,2.63,-1.17,-1.39,0,*7C
1504735330.38,27943,13.69,73522.3,2.63,0.67,0.55,0,*70
1504735331.55,27944,13.69,73532.0,2.61,1.41,1.41,0,*74
1504735332.78,27945,13.69,73540.0,2.63,1.79,1.85,0,*74
1504735334.03,27946,13.69,73534.5,2.63,1.29,1.29,0,*74
1504735335.28,27947,13.69,73534.3,2.63,1.63,1.67,0,*71
1504735336.5,27948,13.69,73532.5,2.65,1.89,1.89,0,*7C
1504735337.68,27949,13.69,73542.8,2.65,-2.23,-0.19,0,*46
1504735338.92,27950,13.69,73544.0,2.53,-5.85,-6.23,0,*7F
1504735340.11,27951,13.69,73544.0,2.49,-2.87,-3.39,0,*7E
1504735341.36,27952,13.69,73542.0,2.47,-1.17,-1.47,0,*72
1504735342.54,27953,13.69,73544.8,2.45,-0.07,-0.33,0,*43
1504735343.75,27954,13.69,73542.5,2.47,0.29,0.05,0,*4F
1504735344.94,27955,13.69,73544.5,2.49,0.67,0.43,0,*78
1504735346.16,27956,13.69,73554.5,2.49,0.95,0.71,0,*77
1504735347.38,27957,13.69,73554.8,2.49,0.91,0.67,0,*75
1504735348.62,27958,13.69,73554.3,2.47,0.63,0.51,0,*7C
1504735349.82,27959,13.69,73552.5,2.49,0.97,0.91,0,*74
1504735351.08,27960,13.69,73546.5,2.51,1.17,1.17,0,*71
1504735352.3,27961,13.69,73548.8,2.49,1.51,1.43,0,*7A
1504735353.51,27962,13.69,73548.5,2.51,1.75,1.79,0,*7F
1504735354.71,27963,13.69,73546.3,2.51,1.79,1.83,0,*77
1504735355.93,27964,13.69,73540.8,2.53,1.93,1.93,0,*77
1504735357.15,27965,13.69,73542.5,2.57,2.01,1.89,0,*71
1504735358.38,27966,13.69,73552.3,2.57,1.97,2.01,0,*7D
1504735359.61,27967,13.69,73556.8,2.57,1.97,1.97,0,*70
1504735360.85,27968,13.69,73556.5,2.59,2.01,1.97,0,*7D
1504735362.11,27969,13.69,73556.3,2.59,2.01,2.01,0,*70
1504735363.33,27970,13.69,73554.5,2.61,2.05,2.05,0,*73
1504735364.55,27971,13.69,73556.0,2.61,2.05,2.01,0,*76
1504735365.78,27972,13.69,73554.0,2.61,2.05,2.05,0,*71
1504735367.0,27973,13.69,73554.8,2.61,2.05,2.01,0,*74
1504735368.25,27974,13.69,73558.0,2.63,2.05,2.01,0,*71
1504735369.5,27975,13.69,73556.5,2.63,2.05,2.05,0,*74
1504735370.73,27976,13.75,73562.3,2.65,2.09,2.17,0,*7E
1504735371.97,27977,13.75,73558.3,2.65,2.17,2.17,0,*70
1504735373.22,27978,13.69,73554.8,2.63,2.13,2.13,0,*79
1504735374.45,27979,13.69,73558.8,2.65,2.17,2.21,0,*7B
1504735375.69,27980,13.69,73558.5,2.65,2.17,2.17,0,*78
1504735376.9,27981,13.69,73552.0,2.65,2.17,2.27,0,*7A
1504735378.14,27982,13.69,73554.5,2.67,2.21,2.25,0,*7C
1504735379.37,27983,13.69,73554.0,2.69,2.25,2.31,0,*72
1504735380.59,27984,13.69,73556.8,2.69,2.21,2.35,0,*75
1504735381.85,27985,13.69,73556.5,2.69,2.21,2.25,0,*75
1504735383.1,27986,13.69,73550.8,2.69,2.25,2.25,0,*72
1504735384.35,27987,13.69,73548.5,2.69,2.25,2.21,0,*77
1504735385.53,27988,13.75,73548.8,2.71,2.27,2.27,0,*75
1504735386.71,27989,13.69,73548.3,2.71,2.35,2.35,0,*74
1504735387.91,27990,13.69,73550.0,2.73,2.35,2.35,0,*7E
1504735389.12,27991,13.69,73546.8,2.71,2.35,2.39,0,*71
1504735390.35,27992,13.69,73546.0,2.73,2.39,2.35,0,*70
1504735391.56,27993,13.69,73546.8,2.73,2.35,2.35,0,*7D
1504735392.76,27994,13.69,73542.0,2.73,2.35,2.35,0,*7A
1504735393.99,27995,13.75,73542.3,2.73,2.35,2.25,0,*7A
1504735395.23,27996,13.69,73544.8,2.73,2.25,2.27,0,*7A
1504735396.41,27997,13.69,73546.8,2.75,2.27,2.27,0,*7F
1504735397.59,27998,13.69,73550.5,2.75,2.27,2.31,0,*77
1504735398.82,27999,13.69,73546.5,2.75,2.09,2.09,0,*71
1504735400.05,28000,13.69,73548.5,2.75,2.17,2.21,0,*72
1504735401.28,28001,13.69,73544.0,2.79,2.25,2.25,0,*7A
1504735402.46,28002,13.69,73546.5,2.79,2.35,2.31,0,*7D
1504735403.63,28003,13.69,73542.5,2.79,2.35,2.31,0,*7C
1504735404.81,28004,13.69,73544.0,2.79,2.35,2.31,0,*7B
1504735406.01,28005,13.69,73544.3,2.75,2.31,2.21,0,*73
1504735407.19,28006,13.69,73544.8,2.79,2.35,2.35,0,*7D
1504735408.37,28007,13.69,73546.5,2.79,2.31,2.35,0,*78
1504735409.55,28008,13.69,73548.8,2.79,2.31,2.35,0,*77
1504735410.76,28009,13.69,73550.3,2.81,2.35,2.35,0,*75
1504735411.96,28010,13.69,73548.8,2.81,2.35,2.31,0,*79
1504735413.16,28011,13.69,73548.8,2.81,2.35,2.31,0,*78
1504735414.36,28012,13.69,73546.5,2.81,2.35,2.31,0,*7B
1504735415.54,28013,13.69,73548.5,2.83,2.35,2.35,0,*7C
1504735416.72,28014,13.75,73552.5,2.83,2.35,2.35,0,*7B
1504735417.95,28015,13.69,73550.0,2.81,2.43,2.35,0,*79
1504735419.18,28016,13.69,73548.3,2.83,2.39,2.39,0,*79
1504735420.39,28017,13.75,73550.5,2.83,2.35,2.39,0,*74
1504735421.59,28018,13.69,73546.5,2.81,2.35,2.31,0,*71
1504735422.8,28019,13.69,73550.0,2.83,2.35,2.39,0,*7A
1504735424.0,28020,13.69,73548.0,2.83,2.35,2.39,0,*70
1504735425.23,28021,13.69,73548.8,2.83,2.39,2.39,0,*7D
1504735426.44,28022,13.69,73548.8,2.83,2.39,2.35,0,*72
1504735427.64,28023,13.69,73550.0,2.83,2.39,2.35,0,*73
1504735428.87,28024,13.69,73550.5,2.87,2.43,2.43,0,*7C
1504735430.13,28025,13.69,73552.0,2.85,2.39,2.39,0,*7F
1504735431.36,28026,13.69,73548.3,2.87,2.39,2.39,0,*7E
1504735432.59,28027,13.75,73548.3,2.87,2.39,2.39,0,*7F
1504735433.82,28028,13.69,73546.5,2.85,2.39,2.35,0,*7E
1504735435.06,28029,13.69,73544.0,2.87,2.39,2.43,0,*7C
1504735436.29,28030,13.69,73546.8,2.85,2.35,2.39,0,*77
1504735437.52,28031,13.69,73546.0,2.85,2.39,2.35,0,*76
1504735438.75,28032,13.69,73544.5,2.87,2.43,2.43,0,*7B
1504735439.98,28033,13.75,73550.5,2.87,2.39,2.43,0,*77
1504735441.21,28034,13.75,73552.5,2.87,2.43,2.43,0,*7D
1504735442.44,28035,13.69,73550.0,2.87,2.43,2.43,0,*7C
1504735443.68,28036,13.69,73550.8,2.87,2.39,2.39,0,*7F
1504735444.91,28037,13.69,73548.0,2.87,2.39,2.43,0,*73
1504735446.17,28038,13.69,73544.0,2.89,2.39,2.51,0,*71
1504735447.4,28039,13.69,73546.3,2.87,2.39,2.39,0,*70
1504735448.66,28040,13.69,73550.0,2.89,2.43,2.43,0,*70
1504735449.89,28041,13.69,73550.0,2.91,2.47,2.47,0,*78
1504735451.15,28042,13.69,73550.8,2.89,2.43,2.43,0,*72
1504735452.39,28043,13.69,73550.5,2.91,2.47,2.43,0,*7E
1504735453.62,28044,13.69,73550.3,2.91,2.47,2.47,0,*7D
1504735454.82,28045,13.75,73552.0,2.91,2.35,2.43,0,*7D
1504735456.05,28046,13.69,73554.3,2.91,2.43,2.47,0,*7B
1504735457.28,28047,13.69,73552.8,2.91,2.47,2.47,0,*7E
1504735458.54,28048,13.69,73548.3,2.89,2.39,2.39,0,*78
1504735459.77,28049,13.69,73550.3,2.91,2.47,2.43,0,*74
1504735460.98,28050,13.69,73554.3,2.91,2.35,2.43,0,*79
1504735462.21,28051,13.69,73554.5,2.91,2.47,2.43,0,*7D
1504735463.44,28052,13.69,73552.0,2.91,2.43,2.47,0,*7E
1504735464.67,28053,13.69,73554.0,2.91,2.47,2.47,0,*7B
1504735465.9,28054,13.69,73552.5,2.91,2.47,2.43,0,*78
1504735467.14,28055,13.69,73554.0,2.91,2.43,2.43,0,*7D
1504735468.37,28056,13.69,73552.0,2.91,2.43,2.47,0,*7A
1504735469.59,28057,13.69,73552.5,2.91,2.55,2.43,0,*78
1504735470.83,28058,13.69,73554.5,2.91,2.43,2.43,0,*70
1504735472.06,28059,13.69,73552.5,2.91,2.43,2.43,0,*71
1504735473.26,28060,13.69,73554.5,2.91,1.41,1.25,0,*79
1504735474.49,28061,13.69,73552.0,2.91,1.47,1.33,0,*79
1504735475.71,28062,13.75,73552.0,2.91,1.59,1.47,0,*76
1504735476.96,28063,13.69,73548.8,2.89,1.71,1.59,0,*7B
1504735478.19,28064,13.69,73546.5,2.89,1.89,1.79,0,*79
1504735479.45,28065,13.69,73546.5,2.89,2.13,2.05,0,*70
1504735480.71,28066,13.69,73546.8,2.89,2.17,2.13,0,*70
1504735481.93,28067,13.69,73544.3,2.91,2.21,2.21,0,*7C
1504735483.14,28068,13.69,73546.5,2.89,2.31,2.27,0,*7D
1504735484.34,28069,13.69,73544.3,2.89,2.31,2.27,0,*7C
1504735485.52,28070,13.69,73544.0,2.91,2.31,2.35,0,*7E
1504735486.69,28071,13.75,73548.5,2.91,2.35,2.35,0,*7B
1504735487.87,28072,13.69,73546.8,2.91,2.31,2.35,0,*7C
1504735489.05,28073,13.75,73544.8,2.91,2.31,2.31,0,*79
1504735490.22,28074,13.75,73546.5,2.91,2.31,2.31,0,*7E
1504735491.4,28075,13.69,73544.0,2.91,2.31,2.31,0,*7F
1504735492.62,28076,13.69,73546.5,2.91,2.21,2.25,0,*78
1504735493.82,28077,13.69,73542.3,2.91,2.25,2.31,0,*78
1504735495.0,28078,13.75,73540.3,2.91,2.31,2.35,0,*76
1504735496.17,28079,13.75,73538.5,2.91,2.31,2.35,0,*77
1504735497.35,28080,13.75,73540.8,2.91,2.31,2.31,0,*75
1504735498.55,28081,13.69,73536.3,2.89,2.27,2.27,0,*7D
1504735499.76,28082,13.75,73538.0,2.91,2.31,2.25,0,*72
1504735500.99,28083,13.75,73536.0,2.91,2.25,2.25,0,*76
1504735502.19,28084,13.75,73534.0,2.91,2.31,2.25,0,*74
1504735503.37,28085,13.69,73534.0,2.91,2.31,2.35,0,*74
1504735504.55,28086,13.75,73534.5,2.91,2.31,2.35,0,*77
1504735505.72,28087,13.69,73532.5,2.91,2.31,2.35,0,*76
1504735506.9,28088,13.75,73536.8,2.91,2.35,2.31,0,*79
1504735508.07,28089,13.69,73532.8,2.91,2.35,2.35,0,*7C
1504735509.25,28090,13.69,73536.3,2.91,2.35,2.35,0,*74
1504735510.5,28091,13.69,73536.3,2.93,2.39,2.39,0,*77
1504735511.75,28092,13.69,73536.5,2.93,2.39,2.39,0,*74
1504735513.01,28093,13.75,73538.5,2.93,2.47,2.39,0,*7C
1504735514.23,28094,13.69,73540.0,2.93,2.39,2.35,0,*7E
1504735515.48,28095,13.69,73544.5,2.93,2.47,2.39,0,*7A
1504735516.73,28096,13.75,73544.3,2.93,2.47,2.47,0,*70
1504735517.96,28097,13.75,73546.5,2.93,2.35,2.39,0,*7D
1504735519.21,28098,13.75,73538.8,2.93,2.39,2.39,0,*7E
1504735520.46,28099,13.75,73538.0,2.93,2.47,2.39,0,*76
1504735521.69,28100,13.69,73540.3,2.95,2.39,2.47,0,*71
1504735522.91,28101,13.75,73544.0,2.95,2.39,2.47,0,*70
1504735524.14,28102,13.75,73542.5,2.95,2.47,2.39,0,*73
1504735525.37,28103,13.75,73538.3,2.95,2.47,2.47,0,*7B
1504735526.62,28104,13.75,73538.8,2.93,2.51,2.47,0,*7D
1504735527.85,28105,13.75,73540.8,2.95,2.47,2.51,0,*7A
1504735529.08,28106,13.69,73544.8,2.95,2.47,2.47,0,*7E
1504735530.33,28107,13.69,73544.0,2.97,2.55,2.55,0,*7D
1504735531.55,28108,13.69,73546.8,2.95,2.39,2.47,0,*79
1504735532.78,28109,13.69,73546.3,2.95,2.47,2.47,0,*71
1504735534.04,28110,13.75,73550.5,2.97,2.51,2.47,0,*7C
1504735535.3,28111,13.69,73548.3,2.97,2.39,2.43,0,*77
1504735536.52,28112,13.75,73546.8,2.95,2.01,2.01,0,*7B
1504735537.75,28113,13.69,73540.8,2.95,2.01,2.09,0,*72
1504735539.0,28114,13.75,73544.8,2.93,2.09,2.13,0,*70
1504735540.24,28115,13.75,73548.5,2.93,2.13,2.21,0,*7B
1504735541.49,28116,13.75,73552.0,2.93,2.01,2.01,0,*79
1504735542.74,28117,13.75,73546.5,2.93,1.97,1.97,0,*78
1504735543.99,28118,13.69,73542.0,2.93,1.89,1.85,0,*7B
1504735545.22,28119,13.69,73540.3,2.93,1.79,1.85,0,*75
1504735546.4,28120,13.69,73544.8,2.91,1.75,1.75,0,*7E
1504735547.58,28121,13.75,73544.3,2.91,1.75,1.75,0,*7F
1504735548.8,28122,13.69,73534.8,2.91,1.63,1.71,0,*7F
1504735550.03,28123,13.69,73532.3,2.91,1.63,1.63,0,*7D
1504735551.25,28124,13.75,73528.8,2.91,1.63,1.71,0,*79
1504735552.51,28125,13.75,73540.8,2.89,1.55,1.55,0,*72
1504735553.76,28126,13.69,73540.0,2.89,1.67,1.67,0,*71
1504735555.01,28127,13.69,73554.5,2.89,1.59,1.59,0,*70
1504735556.26,28128,13.69,73544.5,2.89,1.71,1.67,0,*78
1504735557.49,28129,13.75,73520.5,2.91,1.71,1.59,0,*7D
1504735558.73,28130,13.75,73526.0,2.89,0.95,0.87,0,*75
1504735559.99,28131,13.75,73520.5,2.85,1.25,1.25,0,*7B
1504735561.2,28132,13.75,73530.8,2.85,1.75,1.75,0,*78
1504735562.45,28133,13.69,73528.0,2.85,2.01,2.01,0,*79
1504735563.71,28134,13.75,73530.0,2.85,2.13,2.09,0,*75
1504735564.94,28135,13.69,73534.8,2.87,2.17,2.13,0,*79
1504735566.2,28136,13.75,73538.8,2.85,2.13,2.13,0,*7C
1504735567.46,28137,13.75,73542.5,2.85,2.13,2.13,0,*7D
1504735568.7,28138,13.75,73546.5,2.87,2.17,2.17,0,*70
1504735569.96,28139,13.75,73542.3,2.85,2.01,2.09,0,*7B
1504735571.18,28140,13.75,73542.8,2.87,1.93,1.89,0,*74
1504735572.41,28141,13.75,73544.5,2.85,1.85,1.79,0,*7F
1504735573.62,28142,13.75,73548.8,2.85,1.79,1.79,0,*7F
1504735574.83,28143,13.75,73540.5,2.85,1.79,1.79,0,*7E
1504735576.04,28144,13.75,73544.5,2.85,1.75,1.75,0,*79
1504735577.29,28145,13.69,73540.3,2.85,1.51,1.55,0,*7C
1504735578.54,28146,13.75,73546.0,2.85,1.63,1.51,0,*7A
1504735579.77,28147,13.69,73536.3,2.83,1.63,1.55,0,*79
1504735580.98,28148,13.69,73534.5,2.83,1.63,1.75,0,*74
1504735582.18,28149,13.75,73538.8,2.83,1.75,1.67,0,*71
1504735583.39,28150,13.75,73544.0,2.81,1.75,1.83,0,*71
1504735584.64,28151,13.75,73552.0,2.81,1.93,1.93,0,*79
1504735585.88,28152,13.75,73554.3,2.81,1.85,1.83,0,*7C
1504735587.11,28153,13.75,73556.3,2.83,1.89,1.85,0,*75
1504735588.36,28154,13.69,73552.3,2.81,1.59,1.51,0,*74
1504735589.56,28155,13.75,73540.0,2.83,0.29,0.05,0,*41
1504735590.74,28156,13.69,73538.8,2.75,-0.41,-0.61,0,*77
1504735591.94,28157,13.75,73542.5,2.75,-0.65,-0.85,0,*7A
1504735593.11,28158,13.75,73536.5,2.71,0.09,-0.03,0,*58
1504735594.31,28159,13.75,73538.8,2.71,1.01,0.95,0,*42
1504735595.48,28160,13.75,73542.0,2.71,1.41,1.41,0,*74
1504735596.7,28161,13.75,73536.8,2.71,1.67,1.63,0,*71
1504735597.91,28162,13.69,73528.3,2.71,1.75,1.67,0,*75
1504735599.11,28163,13.69,73538.5,2.71,1.41,1.29,0,*79
1504735600.34,28164,13.75,73542.3,2.71,1.63,1.55,0,*75
1504735601.57,28165,13.75,73538.8,2.73,1.75,1.67,0,*70
1504735602.82,28166,13.75,73538.0,2.73,1.67,1.67,0,*70
1504735604.03,28167,13.75,73538.5,2.71,1.79,1.67,0,*7C
1504735605.26,28168,13.69,73524.8,2.71,1.33,1.33,0,*7C
1504735606.46,28169,13.75,73526.8,2.71,1.43,1.41,0,*7F
1504735607.69,28170,13.75,73526.0,2.71,1.63,1.63,0,*75
1504735608.91,28171,13.75,73526.5,2.71,1.67,1.67,0,*74
1504735610.16,28172,13.75,73522.5,2.69,1.71,1.63,0,*7D
1504735611.39,28173,13.75,73526.0,2.69,1.75,1.71,0,*7B
1504735612.59,28174,13.75,73522.0,2.67,1.75,1.75,0,*76
1504735613.8,28175,13.69,73524.0,2.71,1.85,1.79,0,*73
1504735615.01,28176,13.75,73528.8,2.69,1.75,1.75,0,*7A
1504735616.22,28177,13.75,73528.5,2.69,1.83,1.75,0,*72
1504735617.4,28178,13.75,73532.0,2.71,1.79,1.75,0,*71
1504735618.6,28179,13.75,73534.0,2.69,1.83,1.75,0,*7C
1504735619.81,28180,13.75,73536.0,2.69,1.83,1.75,0,*7A
1504735621.02,28181,13.69,73534.8,2.69,1.83,1.75,0,*7B
1504735622.22,28182,13.75,73540.3,2.69,1.75,1.75,0,*71
1504735623.46,28183,13.75,73540.3,2.71,1.85,1.85,0,*79
1504735624.66,28184,13.69,73540.5,2.67,1.75,1.75,0,*79
1504735625.92,28185,13.75,73546.8,2.69,1.29,1.29,0,*76
1504735627.18,28186,13.75,73544.0,2.67,1.25,1.29,0,*77
1504735628.42,28187,13.75,73540.5,2.67,1.47,1.47,0,*7A
1504735629.67,28188,13.69,73540.0,2.69,1.71,1.71,0,*7B
1504735630.88,28189,13.75,73542.8,2.69,1.83,1.83,0,*7A
1504735632.13,28190,13.69,73536.3,2.67,1.93,1.85,0,*7B
1504735633.39,28191,13.75,73538.8,2.69,1.85,1.93,0,*74
1504735634.64,28192,13.75,73540.3,2.67,1.93,1.93,0,*7E
1504735635.89,28193,13.69,73534.3,2.67,1.93,2.01,0,*77
1504735637.14,28194,13.75,73534.0,2.67,2.01,2.01,0,*78
1504735638.39,28195,13.69,73534.0,2.69,2.01,2.01,0,*77
1504735639.65,28196,13.75,73534.8,2.69,2.01,1.97,0,*78
1504735640.9,28197,13.75,73534.8,2.69,2.09,2.09,0,*75
1504735642.16,28198,13.75,73534.8,2.69,2.01,2.01,0,*7A
1504735643.41,28199,13.75,73536.8,2.69,2.01,2.01,0,*7B
1504735644.65,28200,13.75,73542.0,2.71,2.13,2.13,0,*71
1504735645.88,28201,13.75,73538.8,2.71,2.13,2.13,0,*70
1504735647.11,28202,13.75,73540.5,2.71,2.13,2.05,0,*74
1504735648.34,28203,13.75,73546.0,2.71,2.05,2.01,0,*76
1504735649.57,28204,13.75,73542.3,2.71,2.13,2.13,0,*75
1504735650.8,28205,13.69,73542.5,2.71,2.13,2.17,0,*70
1504735652.04,28206,13.75,73546.5,2.71,2.17,2.17,0,*77
1504735653.27,28207,13.75,73546.5,2.71,2.13,2.17,0,*72
1504735654.53,28208,13.75,73544.5,2.73,2.13,2.13,0,*7B
1504735655.77,28209,13.75,73542.0,2.71,2.17,2.17,0,*78
1504735657.01,28210,13.75,73542.5,2.71,2.13,2.13,0,*70
1504735658.27,28211,13.75,73538.8,2.73,2.17,2.17,0,*73
1504735659.54,28212,13.75,73544.8,2.73,2.17,2.17,0,*70
1504735660.78,28213,13.75,73544.3,2.71,2.25,2.17,0,*72
1504735662.04,28214,13.75,73542.5,2.73,2.17,2.25,0,*77
1504735663.3,28215,13.75,73542.3,2.73,2.13,2.25,0,*72
1504735664.56,28216,13.75,73552.5,2.73,2.25,2.17,0,*75
1504735665.77,28217,13.75,73560.3,2.75,2.17,2.27,0,*70
1504735667.01,28218,13.69,73556.0,2.75,2.17,2.17,0,*7C
1504735668.25,28219,13.75,73552.3,2.79,2.13,2.13,0,*71
1504735669.48,28220,13.75,73550.8,2.79,2.09,2.05,0,*77
1504735670.71,28221,13.75,73550.5,2.75,2.09,2.05,0,*7A
1504735671.94,28222,13.75,73552.5,2.75,2.05,2.05,0,*75
1504735673.18,28223,13.75,73550.0,2.75,2.01,2.05,0,*70
1504735674.4,28224,13.75,73538.0,2.75,2.01,1.93,0,*7B
1504735675.64,28225,13.69,73538.5,2.75,1.93,2.01,0,*7A
1504735676.87,28226,13.75,73544.3,2.75,2.01,1.93,0,*79
1504735678.09,28227,13.75,73542.3,2.75,1.93,1.93,0,*70
1504735679.35,28228,13.75,73542.5,2.73,1.97,1.89,0,*76
1504735680.61,28229,13.75,73542.0,2.73,1.55,1.21,0,*7B
1504735681.86,28230,13.75,73540.5,2.73,0.95,0.79,0,*72
1504735683.1,28231,13.75,73532.0,2.71,1.29,1.29,0,*73
1504735684.36,28232,13.75,73540.0,2.73,1.55,1.51,0,*76
1504735685.6,28233,13.75,73540.3,2.73,1.85,1.79,0,*70
1504735686.8,28234,13.75,73536.5,2.71,1.75,1.63,0,*71
1504735688.03,28235,13.69,73532.8,2.71,1.63,1.55,0,*72
1504735689.26,28236,13.75,73536.3,2.71,1.63,1.55,0,*71
1504735690.46,28237,13.75,73540.3,2.71,1.85,1.75,0,*7A
1504735691.69,28238,13.75,73538.5,2.71,1.97,1.89,0,*75
1504735692.92,28239,13.75,73536.0,2.71,1.97,1.97,0,*7B
1504735694.18,28240,13.75,73528.8,2.73,2.01,2.01,0,*77
1504735695.4,28241,13.75,73524.8,2.71,2.01,2.01,0,*74
1504735696.66,28242,13.75,73524.0,2.73,2.05,2.01,0,*71
1504735697.89,28243,13.75,73526.3,2.71,2.01,1.97,0,*7A
1504735699.11,28244,13.75,73526.3,2.71,2.01,1.97,0,*7D
1504735700.3,28245,13.75,73526.8,2.71,-0.45,-1.21,0,*43
1504735701.55,28246,13.75,73530.0,2.69,-1.99,-2.35,0,*7F
1504735702.76,28247,13.69,73526.8,2.67,0.43,0.37,0,*76
1504735703.98,28248,13.75,73526.0,2.65,1.43,1.55,0,*7F
1504735705.18,28249,13.75,73528.0,2.65,1.89,1.83,0,*73
1504735706.41,28250,13.75,73528.3,2.65,1.93,1.93,0,*71
1504735707.66,28251,13.75,73532.8,2.67,2.01,2.01,0,*72
1504735708.91,28252,13.75,73538.5,2.67,1.97,2.01,0,*7D
1504735710.16,28253,13.75,73540.5,2.67,1.97,1.97,0,*70
1504735711.42,28254,13.75,73538.3,2.67,1.97,2.01,0,*7B
1504735712.67,28255,13.75,73538.0,2.67,2.01,1.97,0,*7A
1504735713.92,28256,13.75,73534.0,2.69,2.01,2.01,0,*7B
1504735715.18,28257,13.75,73534.3,2.69,1.97,1.97,0,*7A
1504735716.43,28258,13.75,73532.3,2.69,1.97,2.01,0,*79
1504735717.69,28259,13.75,73528.3,2.69,2.01,2.13,0,*77
1504735718.95,28260,13.75,73532.3,2.69,2.09,2.09,0,*7E
1504735720.19,28261,13.75,73528.5,2.71,2.17,2.13,0,*72
1504735721.42,28262,13.75,73532.5,2.71,2.13,2.13,0,*75
1504735722.65,28263,13.75,73536.8,2.71,2.13,2.13,0,*74
1504735723.88,28264,13.75,73538.0,2.71,2.05,2.13,0,*74
1504735725.12,28265,13.75,73544.5,2.71,2.13,2.13,0,*72
1504735726.35,28266,13.75,73546.8,2.71,2.13,2.13,0,*71
1504735727.58,28267,13.75,73538.5,2.71,2.13,2.13,0,*70
1504735728.85,28268,13.75,73538.3,2.73,2.17,2.13,0,*79
1504735730.08,28269,13.75,73540.8,2.71,2.13,2.13,0,*7E
1504735731.34,28270,13.75,73538.3,2.73,2.13,2.13,0,*74
1504735732.61,28271,13.69,73534.8,2.73,2.13,2.13,0,*75